Latest Weather Observations for Cape Willoughby

IDS60801

Issued at 3:05 pm CDT Friday 31 October 2014 (issued every 30 minutes, with the page automatically refreshed every 10 minutes)

About weather observations | Map of weather stations | Latest weather observations for SA | Other Formats
Station Details ID: 022803 Name: CAPE WILLOUGHBY Lat: -35.84 Lon: 138.13 Height: 55.0 m
Data from the previous 72 hours. | See also: Recent months at Cape Willoughby
Date/Time
CDT
Temp
°C
App
Temp
°C
Dew
Point
Rel
Hum
%
Delta-T
°C
Wind Press
QNH
hPa
Press
MSL
hPa
Rain
since 9 am
mm
Dir
 
Spd
km/h
Gust
km/h
Spd
kts
Gust
kts
31/03:00pm 23.0 16.5 11.7 49 6.4 SW 37 46 20 25 1000.7 1000.7 0.0
31/02:43pm 23.3 16.1 9.3 41 7.6 SW 37 50 20 27 1000.5 1000.5 0.0
31/02:30pm 28.4 22.4 5.3 23 12.1 WNW 26 35 14 19 1000.9 1000.9 0.0
31/02:00pm 25.7 21.7 9.1 35 9.1 NNW 20 26 11 14 1000.7 1000.7 0.0
31/01:30pm 25.2 19.0 7.8 33 9.3 NNW 30 35 16 19 1001.0 1001.0 0.0
31/01:00pm 26.9 18.9 5.8 26 10.9 NNW 37 44 20 24 1001.6 1001.5 0.0
31/12:30pm 27.9 20.5 6.6 26 11.3 NNW 35 44 19 24 1002.0 1001.9 0.0
31/12:26pm 27.9 19.7 6.6 26 11.3 NNW 39 57 21 31 1002.3 1002.2 0.0
31/12:00pm 26.2 17.2 7.3 30 10.1 NNW 44 54 24 29 1001.9 1001.8 0.0
31/11:30am 25.9 17.4 7.0 30 10.0 NNW 41 50 22 27 1002.2 1002.1 0.0
31/11:00am 26.1 17.9 6.7 29 10.2 NNW 39 46 21 25 1002.6 1002.5 0.0
31/10:30am 24.3 15.9 7.4 34 8.9 NNW 41 52 22 28 1002.8 1002.7 0.0
31/10:00am 24.1 15.3 7.3 34 8.8 NNW 43 52 23 28 1003.0 1002.9 0.0
31/09:30am 22.3 15.2 8.1 40 7.5 NNW 35 41 19 22 1003.4 1003.3 0.0
31/09:00am 21.8 15.3 8.0 41 7.3 NNW 32 39 17 21 1003.9 1003.8 0.0
31/08:30am 20.4 14.9 9.3 49 5.9 N 28 33 15 18 1004.3 1004.2 0.0
31/08:00am 20.5 16.5 10.3 52 5.5 N 22 26 12 14 1004.6 1004.5 0.0
31/07:30am 18.1 17.1 12.3 69 3.2 NNE 9 13 5 7 1004.9 1004.8 0.0
31/07:00am 17.4 17.0 12.9 75 2.5 NNE 7 11 4 6 1005.0 1004.9 0.0
31/06:30am 17.3 13.7 13.0 76 2.4 ENE 24 30 13 16 1005.0 1004.9 0.0
31/06:00am 17.3 13.1 12.4 73 2.7 ENE 26 32 14 17 1005.1 1005.0 0.0
31/05:30am 16.6 12.6 12.9 79 2.1 ENE 26 32 14 17 1005.3 1005.2 0.0
31/05:00am 16.3 11.3 13.4 83 1.6 ENE 32 37 17 20 1005.5 1005.4 0.0
31/04:30am 16.1 11.8 13.2 83 1.6 NE 28 33 15 18 1006.4 1006.3 0.0
31/04:00am 15.9 11.4 13.7 87 1.2 NE 30 37 16 20 1007.1 1007.0 0.0
31/03:30am 15.8 12.8 13.8 88 1.1 NE 22 32 12 17 1007.6 1007.5 0.0
31/03:00am 15.6 13.9 13.6 88 1.1 NE 15 22 8 12 1008.2 1008.1 0.0
31/02:30am 15.5 13.4 13.5 88 1.1 ENE 17 24 9 13 1008.6 1008.5 0.0
31/02:00am 15.6 13.0 13.8 89 1.0 ENE 20 26 11 14 1009.2 1009.2 0.0
31/01:30am 15.6 12.9 13.6 88 1.1 NE 20 24 11 13 1009.9 1009.9 0.0
31/01:00am 15.5 12.9 13.3 87 1.2 ENE 19 22 10 12 1010.6 1010.6 0.0
31/12:30am 15.5 12.9 13.2 86 1.3 ENE 19 22 10 12 1011.1 1011.1 0.0
31/12:00am 15.4 13.1 13.1 86 1.3 ENE 17 20 9 11 1011.6 1011.6 0.0
 
Date/Time
CDT
Temp
°C
App
Temp
°C
Dew
Point
Rel
Hum
%
Delta-T
°C
Wind Press
QNH
hPa
Press
MSL
hPa
Rain
since 9 am
mm
Dir
 
Spd
km/h
Gust
km/h
Spd
kts
Gust
kts
30/11:30pm 15.6 13.4 13.3 86 1.3 E 17 20 9 11 1011.9 1011.9 0.0
30/11:00pm 15.3 13.3 12.6 84 1.5 ENE 15 17 8 9 1012.3 1012.3 0.0
30/10:30pm 15.5 13.1 12.6 83 1.6 ENE 17 20 9 11 1012.5 1012.5 0.0
30/10:00pm 15.3 13.5 12.2 82 1.7 ENE 13 17 7 9 1012.9 1012.9 0.0
30/09:30pm 15.2 13.4 12.0 81 1.7 E 13 15 7 8 1013.0 1013.0 0.0
30/09:00pm 15.2 12.5 11.8 80 1.8 ENE 17 19 9 10 1012.6 1012.6 0.0
30/08:30pm 15.2 13.2 11.6 79 1.9 E 13 19 7 10 1012.4 1012.4 0.0
30/08:00pm 15.2 13.5 11.2 77 2.1 ESE 11 15 6 8 1012.7 1012.7 0.0
30/07:30pm 15.4 13.7 11.2 76 2.3 E 11 15 6 8 1012.6 1012.6 0.0
30/07:00pm 15.8 13.4 11.4 75 2.4 ENE 15 19 8 10 1012.5 1012.5 0.0
30/06:30pm 15.8 13.6 10.8 72 2.7 ENE 13 15 7 8 1012.5 1012.5 0.0
30/06:00pm 16.0 13.7 10.3 69 3.0 E 13 17 7 9 1012.7 1012.7 0.0
30/05:30pm 16.6 15.1 10.5 67 3.2 E 9 13 5 7 1013.1 1013.1 0.0
30/05:00pm 16.5 14.5 10.1 66 3.4 ESE 11 13 6 7 1013.3 1013.3 0.0
30/04:30pm 16.8 14.8 10.2 65 3.5 ESE 11 13 6 7 1013.5 1013.5 0.0
30/04:00pm 17.3 15.8 10.4 64 3.7 ESE 9 13 5 7 1013.8 1013.8 0.0
30/03:30pm 17.0 15.3 9.7 62 3.8 E 9 11 5 6 1014.0 1014.0 0.0
30/03:00pm 16.9 15.6 9.8 63 3.7 E 7 11 4 6 1014.6 1014.6 0.0
30/02:30pm 17.4 15.8 10.3 63 3.8 E 9 13 5 7 1014.8 1014.8 0.0
30/02:00pm 17.5 15.9 10.1 62 3.9 E 9 11 5 6 1015.1 1015.1 0.0
30/01:30pm 17.4 15.3 9.6 60 4.1 ESE 11 13 6 7 1015.3 1015.3 0.0
30/01:00pm 16.9 15.1 9.6 62 3.8 E 9 13 5 7 1015.5 1015.5 0.0
30/12:30pm 16.9 15.0 9.1 60 4.0 ENE 9 11 5 6 1015.9 1015.9 0.0
30/12:00pm 16.8 14.9 9.0 60 4.0 E 9 11 5 6 1016.1 1016.1 0.0
30/11:30am 17.7 15.9 9.6 59 4.3 ESE 9 13 5 7 1016.6 1016.6 0.0
30/11:00am 16.4 14.8 8.6 60 4.0 E 7 9 4 5 1016.6 1016.6 0.0
30/10:30am 16.4 14.8 8.6 60 4.0 ENE 7 9 4 5 1016.7 1016.7 0.0
30/10:00am 16.5 15.0 9.2 62 3.8 ENE 7 9 4 5 1016.6 1016.6 0.0
30/09:30am 16.1 14.5 8.6 61 3.8 ENE 7 9 4 5 1016.7 1016.7 0.0
30/09:00am 15.4 13.3 8.2 62 3.6 NNE 9 11 5 6 1016.7 1016.7 0.0
30/08:30am 14.3 12.5 8.0 66 3.1 NW 7 13 4 7 1016.8 1016.8 0.0
30/08:00am 14.4 12.3 8.4 67 3.0 WNW 9 15 5 8 1016.8 1016.8 0.0
30/07:30am 13.5 11.7 9.4 76 2.1 WNW 9 11 5 6 1016.5 1016.5 0.0
30/07:00am 12.8 10.1 9.1 78 1.9 W 13 15 7 8 1016.5 1016.5 0.0
30/06:30am 12.6 10.5 9.6 82 1.5 W 11 13 6 7 1016.4 1016.4 0.0
30/06:00am 12.6 10.5 9.8 83 1.4 W 11 13 6 7 1016.1 1016.1 0.0
30/05:30am 12.3 9.8 9.7 84 1.3 W 13 15 7 8 1015.9 1015.9 0.0
30/05:00am 12.8 11.8 8.9 77 2.0 NW 4 4 2 2 1015.1 1015.1 0.0
30/04:30am 12.6 11.7 9.1 79 1.8 NW 4 6 2 3 1015.2 1015.2 0.0
30/04:00am 13.2 11.5 9.8 80 1.7 SW 9 13 5 7 1016.3 1016.3 0.0
30/03:30am 12.7 10.5 9.5 81 1.6 WSW 11 13 6 7 1016.2 1016.2 0.0
30/03:00am 12.6 10.4 9.2 80 1.7 SW 11 13 6 7 1016.1 1016.1 0.0
30/02:30am 13.2 11.8 9.5 78 1.9 SSW 7 9 4 5 1015.8 1015.8 0.0
30/02:00am 13.4 12.6 9.8 79 1.9 WSW 4 7 2 4 1016.0 1016.0 0.0
30/01:30am 13.9 12.8 9.9 77 2.1 S 6 7 3 4 1016.5 1016.5 0.0
30/01:00am 13.9 12.2 9.7 76 2.2 SSW 9 15 5 8 1016.8 1016.8 0.0
30/12:30am 14.2 11.8 10.0 76 2.2 S 13 19 7 10 1017.2 1017.2 0.0
30/12:00am 14.3 11.6 10.5 78 2.0 S 15 19 8 10 1017.2 1017.2 0.0
 
Date/Time
CDT
Temp
°C
App
Temp
°C
Dew
Point
Rel
Hum
%
Delta-T
°C
Wind Press
QNH
hPa
Press
MSL
hPa
Rain
since 9 am
mm
Dir
 
Spd
km/h
Gust
km/h
Spd
kts
Gust
kts
29/11:30pm 14.4 11.2 11.2 81 1.7 SSW 19 24 10 13 1017.7 1017.7 0.0
29/11:00pm 14.5 12.4 11.3 81 1.7 S 13 20 7 11 1017.9 1017.9 0.0
29/10:30pm 14.4 11.8 10.6 78 2.0 SSW 15 20 8 11 1018.0 1018.0 0.0
29/10:00pm 14.7 12.2 11.1 79 1.9 S 15 24 8 13 1017.8 1017.8 0.0
29/09:30pm 14.8 12.3 11.2 79 1.9 S 15 20 8 11 1017.7 1017.7 0.0
29/09:00pm 14.7 11.7 10.7 77 2.1 S 17 24 9 13 1017.5 1017.5 0.0
29/08:30pm 14.6 12.2 11.4 81 1.7 S 15 20 8 11 1017.5 1017.5 0.0
29/08:00pm 14.6 11.4 11.2 80 1.8 S 19 26 10 14 1017.6 1017.6 0.0
29/07:30pm 14.7 12.0 11.8 83 1.6 S 17 24 9 13 1017.6 1017.6 0.0
29/07:00pm 14.9 12.1 11.5 80 1.8 S 17 30 9 16 1017.7 1017.7 0.0
29/06:30pm 15.0 11.9 12.1 83 1.6 S 20 28 11 15 1017.1 1017.1 0.0
29/06:00pm 15.2 13.0 12.0 81 1.7 SSW 15 26 8 14 1017.2 1017.2 0.0
29/05:30pm 15.2 12.5 11.6 79 1.9 S 17 22 9 12 1017.3 1017.3 0.0
29/05:00pm 15.1 11.9 11.9 81 1.7 S 20 26 11 14 1017.2 1017.2 0.0
29/04:30pm 15.3 12.2 12.1 81 1.7 S 20 26 11 14 1017.2 1017.2 0.0
29/04:00pm 15.7 12.7 12.5 81 1.8 S 20 26 11 14 1017.2 1017.2 0.0
29/03:30pm 16.0 11.8 12.4 79 2.0 S 26 32 14 17 1017.1 1017.1 0.0
29/03:00pm 18.2 14.5 11.5 65 3.7 N 22 30 12 16 1017.0 1017.0 0.0
29/02:30pm 18.3 14.4 10.7 61 4.1 N 22 26 12 14 1017.5 1017.5 0.0
29/02:00pm 18.5 14.2 10.6 60 4.3 N 24 28 13 15 1017.8 1017.8 0.0
29/01:30pm 17.9 13.3 11.0 64 3.7 N 26 32 14 17 1018.2 1018.2 0.0
29/01:00pm 17.6 13.0 10.9 65 3.6 N 26 33 14 18 1018.4 1018.4 0.0
29/12:30pm 17.6 12.7 11.4 67 3.4 N 28 33 15 18 1018.9 1018.9 0.0
29/12:00pm 17.2 12.6 11.2 68 3.2 N 26 33 14 18 1019.0 1019.0 0.0
29/11:30am 17.1 12.1 10.9 67 3.3 N 28 35 15 19 1019.1 1019.1 0.0
29/11:00am 17.9 12.8 10.5 62 4.0 N 28 37 15 20 1019.1 1019.1 0.0
29/10:30am 18.0 14.0 10.4 61 4.1 N 22 32 12 17 1019.0 1019.0 0.0
29/10:00am 16.1 14.3 10.8 71 2.8 N 11 15 6 8 1019.4 1019.4 0.0
29/09:30am 15.9 13.4 9.6 66 3.3 WNW 13 19 7 10 1019.6 1019.6 0.0
29/09:00am 15.5 14.7 9.8 69 3.0 W 4 7 2 4 1019.6 1019.6 0.0
29/08:30am 14.6 13.9 10.0 74 2.4 SSW 4 6 2 3 1019.7 1019.7 0.0
29/08:00am 14.1 12.9 10.3 78 2.0 W 7 9 4 5 1019.8 1019.8 0.0
29/07:30am 13.3 11.7 10.1 81 1.7 W 9 13 5 7 1019.7 1019.7 0.0
29/07:00am 13.2 10.8 10.2 82 1.6 W 13 17 7 9 1019.6 1019.6 0.0
29/06:30am 12.8 10.7 9.8 82 1.5 W 11 15 6 8 1019.6 1019.6 0.0
29/06:00am 12.6 9.9 10.3 86 1.2 W 15 17 8 9 1019.3 1019.3 0.0
29/05:30am 12.6 9.9 10.5 87 1.1 WNW 15 17 8 9 1019.3 1019.3 0.0
29/05:00am 12.1 9.4 10.3 89 0.9 WNW 15 19 8 10 1019.2 1019.2 0.0
29/04:30am 12.0 8.9 10.2 89 0.9 W 17 19 9 10 1019.0 1019.0 0.0
29/04:00am 11.8 8.0 9.9 88 1.0 WNW 20 22 11 12 1019.1 1019.1 0.0
29/03:30am 11.9 9.0 9.8 87 1.1 W 15 17 8 9 1019.1 1019.1 0.0
29/03:00am 12.1 10.0 9.7 85 1.2 W 11 13 6 7 1019.2 1019.2 0.0
29/02:30am 12.5 10.8 9.9 84 1.3 W 9 13 5 7 1019.2 1019.2 0.0
29/02:00am 12.6 10.9 10.0 84 1.3 WSW 9 11 5 6 1019.2 1019.2 0.0
29/01:30am 12.9 10.6 10.6 86 1.2 WSW 13 15 7 8 1019.5 1019.5 0.0
29/01:00am 12.8 10.9 10.5 86 1.2 WSW 11 15 6 8 1019.8 1019.8 0.0
29/12:30am 13.2 10.2 10.7 85 1.3 WSW 17 20 9 11 1019.8 1019.8 0.0
29/12:00am 13.4 9.9 10.8 84 1.4 SW 20 24 11 13 1019.6 1019.6 0.0
 
Date/Time
CDT
Temp
°C
App
Temp
°C
Dew
Point
Rel
Hum
%
Delta-T
°C
Wind Press
QNH
hPa
Press
MSL
hPa
Rain
since 9 am
mm
Dir
 
Spd
km/h
Gust
km/h
Spd
kts
Gust
kts
28/11:30pm 14.0 10.2 11.2 83 1.5 SW 22 28 12 15 1019.7 1019.7 0.0
28/11:00pm 14.1 10.2 10.9 81 1.7 SW 22 28 12 15 1019.7 1019.7 0.0
28/10:30pm 14.2 10.4 11.2 82 1.6 SW 22 28 12 15 1019.8 1019.8 0.0
28/10:00pm 14.4 10.7 11.4 82 1.6 SW 22 26 12 14 1020.0 1019.9 0.0
28/09:30pm 14.4 10.3 11.4 82 1.6 SSW 24 30 13 16 1020.0 1019.9 0.0
28/09:00pm 14.6 11.2 11.2 80 1.8 SW 20 26 11 14 1019.6 1019.6 0.0
28/08:30pm 14.7 11.4 11.5 81 1.7 SW 20 24 11 13 1019.5 1019.5 0.0
28/08:00pm 14.8 11.0 11.0 78 2.0 SW 22 28 12 15 1019.4 1019.4 0.0
28/07:30pm 15.0 11.2 11.2 78 2.0 SW 22 28 12 15 1019.3 1019.3 0.0
28/07:00pm 15.1 10.8 10.9 76 2.2 SW 24 30 13 16 1019.1 1019.1 0.0
28/06:30pm 15.3 10.7 10.9 75 2.3 SSW 26 32 14 17 1019.0 1019.0 0.0
28/06:00pm 15.8 11.2 11.2 74 2.5 SW 26 33 14 18 1018.8 1018.8 0.0
28/05:30pm 15.8 10.8 11.0 73 2.6 SSW 28 37 15 20 1018.7 1018.7 0.0
28/05:00pm 16.5 11.1 10.8 69 3.1 SW 30 37 16 20 1018.6 1018.6 0.0
28/04:30pm 16.5 11.3 11.6 73 2.7 SSW 30 37 16 20 1018.5 1018.5 0.0
28/04:00pm 16.4 11.8 11.1 71 2.9 SSW 26 35 14 19 1018.6 1018.6 0.0
28/03:30pm 16.4 12.1 10.7 69 3.0 SSW 24 35 13 19 1018.5 1018.5 0.0

Other Formats:

Comma delimited format used in spreadsheet applications
http://www.bom.gov.au/fwo/IDS60801/IDS60801.94822.axf

JavaScript Object Notation format (JSON) in row-major order
http://www.bom.gov.au/fwo/IDS60801/IDS60801.94822.json